Погода в Листвянском

Россия / Новосибирская область     54°26′23″N   83°29′45″E
темп.,
°C
ветер,
м/с
пор.,
м/с
влажн.,
%
обл.,
%
осадки,
мм/ч
давл.,
гПа
погр.,
м
9 мая, вс
вс901:00+11с116910 0.0 101615
04:00+10с246976 0.0 1017133
07:00+7ссв35710 0.0 1018188
10:00+10ссв45580 0.0 1019765
13:00+12с55435 0.0 10181297
16:00+13ссв66384 0.0 10181581
19:00+12ссв67405 0.0 10191757
22:00+8св511505 0.0 1021397
10 мая, пн
пн1001:00+5всв310613 0.0 1022294
04:00+3св412720 0.0 1022349
07:00+4св411780 0.0 1023465
10:00+9всв79545 0.0 1022953
13:00+13всв78380 0.0 10201504
16:00+15св78330 0.0 10191847
19:00+15св68405 0.0 10181748
22:00+9св41055100 0.0 1018206
11 мая, вт
вт1101:00+8св5126270 0.0 1018347
04:00+5ссв410755 0.0 1018233
07:00+6ссв513722 0.0 1018463
10:00+12св811563 0.0 10181392
13:00+16ссв894294 0.0 10172454
16:00+14ссв9952100 0.3 10181551
19:00+13ссв7952100 0.3 10191336
22:00+9ссв495977 0.0 1020302
12 мая, ср
ср1201:00+6с410675 0.0 1021227
04:00+4с39754 0.0 1021227
07:00+4с49746 0.0 1022340
10:00+9с56551 0.0 1021902
13:00+13с454873 0.0 10201566
16:00+13ссв4547100 0.0 10201700
19:00+12св3555100 0.0 1020364
22:00+9всв126169 0.0 102114
13 мая, чт
чт1301:00+9в226213 0.0 102138
04:00+6вюв117795 0.0 102110
07:00+8ссв0069100 0.0 102215
10:00+12св22517 0.0 1021629
13:00+16св223447 0.0 10202252
16:00+17с11303 0.0 10192276
19:00+17зсз22323 0.0 10182059
22:00+12зюз224498 0.0 101910